Bedford, MA

10:42 PM EDT on March 24, 2017 (GMT -0400)
Hanscom

Weather History for KBED - October, 2012

Change the Weather History Date:

Tuesday, October 9, 2012

  Actual Average Record
Temperature  
Mean Temperature 51 °F -  
Max Temperature 57 °F 63 °F 84 °F (2011)
Min Temperature 45 °F 41 °F 25 °F (2001)
Degree Days  
Heating Degree Days 14    
Growing Degree Days 1 (Base 50)    
Moisture  
Dew Point 46 °F    
Average Humidity 82    
Maximum Humidity 93    
Minimum Humidity 64    
Precipitation  
Precipitation 0.00 in - - ()
Sea Level Pressure  
Sea Level Pressure 30.25 in    
Wind  
Wind Speed 4 mph (NE)    
Max Wind Speed 15 mph    
Max Gust Speed 18 mph    
Visibility 10 miles    
Events      
Averages and records for this station are not official NWS values.
T = Trace of Precipitation, MM = Missing Value Source: NWS Daily Summary

Daily Weather History Graph

Daily Weather History Graph

Search for Another Location

Airport or City:

Trip Planner

Search our weather history database for the weather conditions in past years. The results will help you decide how hot, cold, wet, or windy it might be!

Date:

Astronomy

Oct. 09, 2012 Rise Set
Actual Time 6:51 AM EDT 6:12 PM EDT
Civil Twilight 6:23 AM EDT 6:40 PM EDT
Nautical Twilight 5:50 AM EDT 7:12 PM EDT
Astronomical Twilight 5:18 AM EDT 7:45 PM EDT
Moon 12:17 AM EDT (10/9) 2:44 PM EDT (10/9)
Length of Visible Light 12h 16m
Length of Day
11h 20m
Last Quarter, 37% of the Moon is Illuminated
Oct 9
Last Quarter
Oct 15
New
Oct 21
First Quarter
Oct 29
Full
Nov 6
Last Quarter

Hourly Weather History & Observations

Time (EDT) Temp. Dew Point Humidity Pressure Visibility Wind Dir Wind Speed Gust Speed Precip Events Conditions
12:56 AM 46.9 °F 44.1 °F 90% 30.33 in 10.0 mi Calm Calm - N/A   Overcast
1:56 AM 46.0 °F 44.1 °F 93% 30.33 in 10.0 mi Calm Calm - N/A   Overcast
2:56 AM 46.0 °F 44.1 °F 93% 30.32 in 10.0 mi Calm Calm - N/A   Mostly Cloudy
3:56 AM 46.0 °F 44.1 °F 93% 30.31 in 10.0 mi Calm Calm - N/A   Clear
4:56 AM 46.0 °F 43.0 °F 89% 30.30 in 10.0 mi Calm Calm - N/A   Scattered Clouds
5:56 AM 45.0 °F 43.0 °F 93% 30.30 in 10.0 mi Calm Calm - N/A   Mostly Cloudy
6:11 AM 46.4 °F 44.6 °F 93% 30.26 in 10.0 mi Calm Calm - N/A   Overcast
6:56 AM 46.9 °F 44.1 °F 90% 30.31 in 10.0 mi Calm Calm - N/A   Overcast
7:05 AM 46.4 °F 44.6 °F 93% 30.26 in 10.0 mi Calm Calm - N/A   Overcast
7:33 AM 48.2 °F 46.4 °F 93% 30.26 in 10.0 mi NNE 3.5 mph - N/A   Overcast
7:56 AM 48.9 °F 46.0 °F 90% 30.30 in 10.0 mi Calm Calm - N/A   Overcast
8:56 AM 50.0 °F 46.0 °F 86% 30.31 in 10.0 mi NNE 5.8 mph - N/A   Overcast
9:56 AM 54.0 °F 48.0 °F 80% 30.31 in 10.0 mi NE 5.8 mph - N/A   Overcast
10:56 AM 55.9 °F 45.0 °F 67% 30.29 in 10.0 mi East 15.0 mph - N/A   Overcast
11:56 AM 57.0 °F 45.0 °F 64% 30.28 in 10.0 mi East 9.2 mph - N/A   Overcast
12:10 PM 55.4 °F 44.6 °F 67% 30.24 in 10.0 mi East 10.4 mph - N/A   Overcast
12:21 PM 55.4 °F 46.4 °F 72% 30.23 in 10.0 mi East 11.5 mph - N/A   Overcast
12:56 PM 57.0 °F 45.0 °F 64% 30.26 in 10.0 mi ENE 12.7 mph - N/A   Overcast
1:15 PM 55.4 °F 46.4 °F 72% 30.21 in 10.0 mi ENE 10.4 mph 18.4 mph N/A   Overcast
1:56 PM 55.0 °F 46.0 °F 72% 30.25 in 10.0 mi NE 10.4 mph - N/A   Overcast
2:56 PM 53.1 °F 48.0 °F 83% 30.25 in 10.0 mi NE 4.6 mph - 0.00 in   Overcast
3:23 PM 51.8 °F 48.2 °F 88% 30.20 in 2.5 mi East 10.4 mph - 0.00 in   Light Drizzle
3:44 PM 53.6 °F 48.2 °F 82% 30.19 in 10.0 mi NE 6.9 mph - 0.00 in   Overcast
3:56 PM 53.1 °F 48.9 °F 86% 30.23 in 10.0 mi ENE 5.8 mph - 0.00 in   Overcast
4:04 PM 53.6 °F 48.2 °F 82% 30.18 in 10.0 mi ENE 5.8 mph - N/A   Overcast
4:12 PM 53.6 °F 48.2 °F 82% 30.18 in 10.0 mi ENE 6.9 mph - N/A   Overcast
4:56 PM 54.0 °F 46.9 °F 77% 30.22 in 10.0 mi ENE 8.1 mph - N/A   Overcast
5:29 PM 53.6 °F 46.4 °F 77% 30.18 in 10.0 mi ENE 6.9 mph - N/A   Overcast
5:56 PM 54.0 °F 46.0 °F 75% 30.22 in 10.0 mi East 5.8 mph - N/A   Overcast
6:56 PM 53.1 °F 45.0 °F 74% 30.22 in 10.0 mi NE 4.6 mph - N/A   Overcast
7:56 PM 52.0 °F 45.0 °F 77% 30.21 in 10.0 mi NE 5.8 mph - N/A   Overcast
8:56 PM 52.0 °F 45.0 °F 77% 30.21 in 10.0 mi NNE 3.5 mph - N/A   Overcast
9:56 PM 51.1 °F 45.0 °F 80% 30.20 in 10.0 mi North 3.5 mph - N/A   Overcast
10:56 PM 51.1 °F 45.0 °F 80% 30.20 in 10.0 mi North 3.5 mph - N/A   Overcast
11:56 PM 50.0 °F 44.1 °F 80% 30.16 in 10.0 mi ENE 9.2 mph - N/A   Overcast